Preview of NWS' New Version of Forecast
This preview is not operational and should not be used for support decisions.

Regional Weather Roundup (RWR)

Issued by National Weather Service (NWS)

                            
000
ASUS43 KDMX 182006
RWRIA 

WEATHER ROUNDUP FOR IOWA
NATIONAL WEATHER SERVICE DES MOINES IA
200 PM CST FRI JAN 18 2019

NOTE: "FAIR" INDICATES FEW OR NO CLOUDS BELOW 12,000 FEET WITH NO
SIGNIFICANT WEATHER AND/OR OBSTRUCTIONS TO VISIBILITY.

* - THESE STATIONS ARE NOT NWS STATIONS...THUS NOT UNDER NWS
QUALITY CONTROL.  THEY ALSO DO NOT REPORT WEATHER SUCH 
AS PRECIPITATION OR FOG.  

IAZ001>003-012>014-020>022-031>034-043>046-182100-
   NORTHWEST IOWA
  
CITY           SKY/WX    TMP DP  RH WIND       PRES   REMARKS
CARROLL *      CLOUDY    21  16  79 NE16      30.01F WCI   7          
CHEROKEE *     CLOUDY    17  12  82 NE15G22   30.06F WCI   2          
DENISON *      CLOUDY    19  12  73 NE18G26   30.00F WCI   4          
LE MARS *      FLURRIES  16  10  79 NE21G26   30.07F WCI  -2          
ORANGE CITY *  CLOUDY    16  10  79 NE13G24   30.07S WCI   2          
SHELDON *      CLOUDY    12  12 100 NE20G30   30.07F WCI  -6          
SIOUX CITY     CLOUDY    19  13  77 NE13G24   30.05F HAZE    WCI   6  
SPENCER        FLURRIES  14   8  77 NE21      30.09F WCI  -4          
STORM LAKE *   CLOUDY    16  14  93 NE18G29   30.02F WCI  -1          
$$
 
IAZ055>058-069>071-079>083-090>094-182100-
   SOUTHWEST IOWA
  
CITY           SKY/WX    TMP DP  RH WIND       PRES   REMARKS
ATLANTIC *     CLOUDY    21  19  93 NE15G23   29.96F WCI   8          
AUDUBON *      CLOUDY    19  16  86 NE14G21   29.97F WCI   6          
CLARINDA *     LGT SNOW  27  25  93 NE13      29.93F WCI  16          
COUNCIL BLFS * FOG       21  21 100 NE20      29.93F VSB 1   WCI   6  
CRESTON *      CLOUDY    23  23 100 E16G23    29.94F FOG     WCI  10  
HARLAN  *      CLOUDY    19  16  86 NE15G21   29.96F WCI   5          
LAMONI         CLOUDY    27  24  89 NE9       29.92F FOG     WCI  18  
RED OAK *      MIX PCPN  23  23 100 NE15      29.93F WCI  10          
SHENANDOAH *   MIX PCPN  27  27 100 NE17      29.92F WCI  14          
$$
 
IAZ047>049-059>061-072>074-084-182100-
   CENTRAL IOWA
  
CITY           SKY/WX    TMP DP  RH WIND       PRES   REMARKS
AMES           CLOUDY    23  17  78 E15G23    30.03F WCI  10          
ANKENY *       MIX PCPN  23  19  86 MISG      30.03F                  
BOONE *        CLOUDY    21  19  93 E16       30.02S WCI   7          
CHARITON *     CLOUDY    25  25 100 E14       29.96F FOG     WCI  13  
DES MOINES     FLURRIES  23  18  81 E14G24    29.99F WCI  11          
GRINNELL*      CLOUDY    24  21  85 E12       30.05S WCI  13          
KNOXVILLE *    CLOUDY    25  25 100 E13       29.99F FOG     WCI  13  
MARSHALLTOWN   CLOUDY    23  19  85 E18       30.05F WCI   9          
NEWTON *       CLOUDY    23  21  93 NE15      30.03S WCI  10          
PELLA *        CLOUDY    25  22  88 E8        30.03F FOG     WCI  16  
PERRY *        CLOUDY    21  17  83 NE14      30.03F WCI   8          
$$
 
IAZ004>006-015-016-023>025-035-036-182100-
   NORTH CENTRAL IOWA
  
CITY           SKY/WX    TMP DP  RH WIND       PRES   REMARKS
ALGONA *       CLOUDY    14  12  92 NE16G23   30.08F WCI  -2          
CLARION *      CLOUDY    18  14  86 NE18G25   30.07F WCI   2          
ESTHERVILLE    LGT SNOW  10   7  87 NE17      30.12F FOG     WCI  -8  
FORT DODGE *   FLURRIES  19  14  81 NE13      30.07F WCI   6          
MASON CITY     LGT SNOW  14  11  87 NE16      30.13S FOG     WCI  -2  
FOREST CITY *  LGT SNOW  16  12  86 NE10G16   30.12S WCI   3          
WEBSTER CITY * FLURRIES  21  16  79 NE16      30.03F WCI   7          
IOWA FALLS *   CLOUDY    21  16  81 NE13G20   30.06F WCI   9          
$$

IAZ007>011-017>019-026>030-037>042-050>054-066-182100-
   NORTHEAST IOWA
  
CITY           SKY/WX    TMP DP  RH WIND       PRES   REMARKS
CEDAR RAPIDS   CLOUDY    26  21  81 E17       30.05F WCI  13          
CHARLES CITY * CLOUDY    16  10  79 NE12      30.13S WCI   3          
CLINTON *      CLOUDY    28  23  81 NE17      30.11  WCI  16          
DECORAH *      SNOW      14  14 100 NE7G15    30.12S VSB 1/2 WCI   4  
DUBUQUE        CLOUDY    21  16  81 NE14      30.10F WCI   8          
MONTICELLO *     N/A    N/A N/A N/A MISG        N/A                   
WATERLOO       CLOUDY    22  15  75 NE13      30.11R WCI  10          
$$
 
IAZ064-065-067-068-078-182100-
   EAST CENTRAL IOWA
  
CITY           SKY/WX    TMP DP  RH WIND       PRES   REMARKS
DAVENPORT      CLOUDY    28  21  75 E13       30.11S WCI  17          
IOWA CITY      CLOUDY    28  21  75 E8G21     30.09S WCI  20          
MT. PLEASANT * CLOUDY    32  28  86 E15       30.04F WCI  22          
MUSCATINE *    CLOUDY    30  23  74 E13       30.08F WCI  20          
QUAD CITIES    CLOUDY    30  23  75 E15       30.09F WCI  19          
$$
 
IAZ062-063-075>077-085>089-095>099-182100-
   SOUTHEAST IOWA
  
CITY           SKY/WX    TMP DP  RH WIND       PRES   REMARKS
BURLINGTON     CLOUDY    30  24  78 E12       30.04F WCI  20          
FAIRFIELD *    CLOUDY    28  23  80 E15       30.03S WCI  17          
FORT MADISON * CLOUDY    28  27  93 E13       30.03F FOG     WCI  18  
KEOKUK *       CLOUDY    32  28  86 E10       30.02S FOG     WCI  24  
OSKALOOSA *    CLOUDY    26  23  87 E14       30.02F FOG     WCI  15  
CENTERVILLE *  PTSUNNY   27  27 100 E14G20    29.97F FOG     WCI  15  
OTTUMWA        CLOUDY    27  23  85 E16       30.01F WCI  15          
WASHINGTON *   CLOUDY    28  27  93 E13       30.07R WCI  18          
$$

ABBREVIATIONS USED IN REMARKS
   TC - TEMPERATURES IN CELSIUS
  WCI - WIND CHILL INDEX
   HX - HEAT INDEX
  VSB - VISIBILITY  
$$